Location: Banff
(51.1667°N, 115.5667°W)
Time: 13:05:43
(UTC+00:00)

Vanguard 1 Rocket - Pass Details

Date: 05 December 2020
Orbit: 655 x 4222 km, 34.3° (Epoch: 23 January)

Event Time Altitude Azimuth Distance (km) Brightness Sun altitude
Rises 14:47:26 0° 279° (W) 7,973 - -6.5°
Exits shadow 14:48:45 - 277° (W) 7,744 11.5 -6.3°
Reaches altitude 10° 14:58:03 10° 258° (WSW) 6,163 11.2 -5.0°
Maximum altitude 15:04:17 13° 238° (WSW) 5,325 11.0 -4.2°
Drops below altitude 10° 15:09:30 10° 216° (SW) 4,964 11.1 -3.5°
Sets 15:15:50 0° 190° (S) 5,171 11.6 -2.7°
